Date String (YYYY-MM-DD hh:mm:ss) UTC,Instrument flags,Ambient pressure (hPa),Sample flow (lpm),Bypass flow (lpm),Sample temperature (°C),Ambient temperature (°C),ASC tube jacket temperature (°C),LED temperature (°C),Box temperature (°C),Sample RH (%),Span deviation,Mass concentration (μg/m³),Mass concentration (μg/m³),Mass concentration (μg/m³)
DateTimeUTC,F1_M11,P_M11,Q1_M11,Q2_M11,T1_M11,T2_M11,T3_M11,T4_M11,T5_M11,U1_M11,ZSPAN_M11,X0_M11,X2_M11,X1_M11
2023-02-21 18:00:00,,0805.1,5.00,0.00,22.2,20.9,00.0,31.0,24.0,13.7,0000.0,0008.61,0002.02,0000.74
2023-02-21 18:01:00,,0805.1,5.01,0.00,22.2,21.0,00.0,31.0,24.0,13.2,0000.0,0008.79,0002.07,0000.74
2023-02-21 18:02:00,,0805.2,4.98,0.00,22.2,21.0,00.0,31.0,24.0,12.9,0000.0,0008.80,0002.06,0000.75
2023-02-21 18:03:00,,0805.2,5.00,0.00,22.2,21.0,00.0,31.0,24.0,13.0,0000.0,0008.06,0001.72,0000.73
2023-02-21 18:04:00,,0805.1,4.98,0.00,22.2,21.0,00.0,31.0,24.0,13.0,0000.0,0008.04,0001.54,0000.71
2023-02-21 18:05:00,,0805.0,4.99,0.00,22.2,21.0,00.0,31.0,24.0,13.2,0000.0,0007.70,0001.51,0000.71
2023-02-21 18:06:00,,0804.9,5.00,0.00,22.2,21.0,00.0,31.0,24.0,13.0,0000.0,0007.25,0001.51,0000.71
2023-02-21 18:07:00,,0804.6,5.01,0.00,22.2,21.0,00.0,31.0,24.0,12.9,0000.0,0007.27,0001.53,0000.71
2023-02-21 18:08:00,,0804.9,5.00,0.00,22.2,21.0,00.0,31.0,24.1,14.0,0000.0,0007.67,0001.54,0000.68
2023-02-21 18:09:00,,0805.3,5.00,0.00,22.2,21.0,00.0,31.1,24.1,15.0,0000.0,0008.41,0001.58,0000.71
2023-02-21 18:10:00,,0805.2,5.02,0.00,22.2,21.0,00.0,31.1,24.1,15.1,0000.0,0007.97,0001.67,0000.77
2023-02-21 18:11:00,,0805.2,5.00,0.00,22.3,21.1,00.0,31.1,24.1,14.6,0000.0,0007.47,0001.73,0000.83
2023-02-21 18:12:00,,0805.0,5.00,0.00,22.3,21.1,00.0,31.1,24.1,12.9,0000.0,0007.93,0001.84,0000.86
2023-02-21 18:13:00,,0804.8,4.99,0.00,22.3,21.1,00.0,31.1,24.1,12.7,0000.0,0009.66,0001.96,0000.88
2023-02-21 18:14:00,,0804.4,5.00,0.00,22.3,21.1,00.0,31.1,24.2,13.0,0000.0,0010.02,0002.06,0000.88
2023-02-21 18:15:00,,0804.7,4.99,0.00,22.3,21.1,00.0,31.1,24.1,13.3,0000.0,0010.26,0002.10,0000.91
2023-02-21 18:16:00,,0805.0,5.00,0.00,22.3,21.1,00.0,31.1,24.1,13.7,0000.0,0010.27,0002.16,0000.96
2023-02-21 18:17:00,,0804.9,4.99,0.00,22.3,21.1,00.0,31.1,24.2,13.5,0000.0,0010.52,0002.20,0001.01
2023-02-21 18:18:00,,0804.7,4.99,0.00,22.3,21.1,00.0,31.1,24.2,13.2,0000.0,0010.42,0002.13,0001.03
2023-02-21 18:19:00,,0804.3,5.00,0.00,22.3,21.1,00.0,31.1,24.2,12.8,0000.0,0009.97,0002.13,0001.03
2023-02-21 18:20:00,,0804.2,5.00,0.00,22.3,21.1,00.0,31.1,24.2,13.5,0000.0,0009.97,0002.06,0000.94
2023-02-21 18:21:00,,0804.4,5.00,0.00,22.3,21.1,00.0,31.1,24.2,13.5,0000.0,0009.93,0001.93,0000.84
2023-02-21 18:22:00,,0804.6,5.02,0.00,22.3,21.1,00.0,31.1,24.2,13.1,0000.0,0009.69,0001.79,0000.74
2023-02-21 18:23:00,,0804.6,4.99,0.00,22.3,21.1,00.0,31.2,24.2,13.5,0000.0,0009.30,0001.62,0000.73
2023-02-21 18:24:00,,0804.7,5.00,0.00,22.4,21.1,00.0,31.2,24.2,13.8,0000.0,0007.50,0001.51,0000.74
2023-02-21 18:25:00,,0804.7,4.99,0.00,22.4,21.2,00.0,31.2,24.2,13.8,0000.0,0007.35,0001.54,0000.79
2023-02-21 18:26:00,,0804.6,5.00,0.00,22.4,21.2,00.0,31.2,24.3,13.9,0000.0,0006.62,0001.58,0000.83
2023-02-21 18:27:00,,0804.5,4.99,0.00,22.4,21.3,00.0,31.2,24.3,14.2,0000.0,0006.18,0001.59,0000.83
2023-02-21 18:28:00,,0804.6,5.00,0.00,22.4,21.3,00.0,31.2,24.3,13.5,0000.0,0005.99,0001.55,0000.82
2023-02-21 18:29:00,,0804.6,5.00,0.00,22.4,21.3,00.0,31.2,24.3,14.3,0000.0,0007.30,0001.62,0000.86
2023-02-21 18:30:00,,0804.7,4.99,0.00,22.4,21.4,00.0,31.2,24.3,15.8,0000.0,0007.94,0001.87,0001.01
2023-02-21 18:31:00,,0804.6,5.00,0.00,22.5,21.4,00.0,31.2,24.4,16.5,0000.0,0007.60,0002.15,0001.18
2023-02-21 18:32:00,,0804.6,4.98,0.00,22.5,21.4,00.0,31.2,24.4,17.8,0000.0,0007.81,0002.49,0001.45
2023-02-21 18:33:00,,0804.6,5.00,0.00,22.5,21.5,00.0,31.2,24.4,17.6,0000.0,0007.95,0002.82,0001.73
2023-02-21 18:34:00,,0804.7,5.01,0.00,22.5,21.5,00.0,31.3,24.5,17.5,0000.0,0008.06,0003.09,0001.98
2023-02-21 18:35:00,,0804.7,4.99,0.00,22.5,21.5,00.0,31.3,24.5,16.3,0000.0,0008.21,0003.25,0002.19
2023-02-21 18:36:00,,0804.8,5.02,0.00,22.6,21.5,00.0,31.3,24.5,15.5,0000.0,0008.22,0003.31,0002.29
2023-02-21 18:37:00,,0804.7,4.99,0.00,22.6,21.5,00.0,31.3,24.5,15.7,0000.0,0008.71,0003.40,0002.40
2023-02-21 18:38:00,,0804.8,4.99,0.00,22.6,21.6,00.0,31.3,24.5,15.5,0000.0,0009.27,0003.48,0002.51
2023-02-21 18:39:00,,0804.7,4.99,0.00,22.6,21.6,00.0,31.3,24.5,14.8,0000.0,0009.59,0003.55,0002.59
2023-02-21 18:40:00,,0804.6,5.00,0.00,22.6,21.6,00.0,31.3,24.5,14.8,0000.0,0008.99,0003.60,0002.65
2023-02-21 18:41:00,,0804.6,4.99,0.00,22.6,21.6,00.0,31.3,24.6,14.4,0000.0,0008.64,0003.54,0002.61
2023-02-21 18:42:00,,0804.7,5.00,0.00,22.6,21.6,00.0,31.3,24.6,14.9,0000.0,0008.36,0003.45,0002.52
2023-02-21 18:43:00,,0804.8,5.00,0.00,22.7,21.6,00.0,31.4,24.6,13.5,0000.0,0008.15,0003.30,0002.31
2023-02-21 18:44:00,,0804.8,5.00,0.00,22.7,21.6,00.0,31.4,24.6,13.5,0000.0,0007.90,0003.15,0002.05
2023-02-21 18:45:00,,0804.8,5.00,0.00,22.7,21.7,00.0,31.4,24.6,13.9,0000.0,0007.65,0002.92,0001.82
2023-02-21 18:46:00,,0804.8,5.00,0.00,22.7,21.7,00.0,31.4,24.7,13.9,0000.0,0007.41,0002.67,0001.63
2023-02-21 18:47:00,,0804.8,5.02,0.00,22.8,21.7,00.0,31.4,24.7,13.2,0000.0,0007.20,0002.53,0001.52
2023-02-21 18:48:00,,0804.8,5.00,0.00,22.8,21.8,00.0,31.4,24.7,12.9,0000.0,0006.48,0002.37,0001.39
2023-02-21 18:49:00,,0804.8,5.01,0.00,22.8,21.8,00.0,31.5,24.8,13.2,0000.0,0005.43,0002.17,0001.23
2023-02-21 18:50:00,,0804.8,4.99,0.00,22.8,21.8,00.0,31.5,24.8,13.3,0000.0,0004.78,0002.07,0001.13
2023-02-21 18:51:00,,0804.8,5.00,0.00,22.8,21.8,00.0,31.5,24.8,13.1,0000.0,0004.98,0001.97,0001.06
2023-02-21 18:52:00,,0804.5,5.00,0.00,22.8,21.9,00.0,31.5,24.8,13.4,0000.0,0004.50,0001.84,0001.00
2023-02-21 18:53:00,,0804.5,5.00,0.00,22.9,21.9,00.0,31.5,24.8,12.9,0000.0,0004.23,0001.71,0000.93
2023-02-21 18:54:00,,0804.6,5.00,0.00,22.9,21.9,00.0,31.6,24.8,12.7,0000.0,0003.95,0001.61,0000.87
2023-02-21 18:55:00,,0804.7,5.00,0.00,22.9,21.9,00.0,31.6,24.8,12.7,0000.0,0003.89,0001.57,0000.85
2023-02-21 18:56:00,,0804.7,5.00,0.00,22.9,22.0,00.0,31.6,24.9,13.0,0000.0,0003.85,0001.53,0000.82
2023-02-21 18:57:00,,0804.7,5.01,0.00,22.9,22.0,00.0,31.6,24.9,13.0,0000.0,0003.87,0001.52,0000.78
2023-02-21 18:58:00,,0804.7,5.00,0.00,23.0,22.0,00.0,31.6,24.9,15.3,0000.0,0004.71,0001.64,0000.86
2023-02-21 18:59:00,,0804.6,5.00,0.00,23.0,22.0,00.0,31.7,24.9,16.1,0000.0,0006.29,0001.90,0001.10
